Flag for USA

Past Weather in Denver, Colorado, USA — Yesterday and Last 2 Weeks

Now
88 °F

Scattered clouds.


Feels Like: 84 °F
Forecast: 93 / 67 °F
Wind: 13 mph from Southwest

Location: Buckley Air Force Base

Current Time: Jul 12, 2020 at 6:48:24 pm

Latest Report: Jul 12, 2020 at 5:58 pm


Visibility: 10 mi

Pressure: 29.80 "Hg (24.92 "Hg at 1593m altitude)

Humidity: 19%

Dew Point: 40 °F

Location of DenverLocation

Past Weather in Denver — Graph

°F

Denver Temperature Yesterday

Maximum temperature yesterday: 92 °F (at 2:58 pm)
Minimum temperature yesterday: 63 °F (at 4:58 am)
Average temperature yesterday: 77 °F

High & Low Weather Summary for the Past Weeks

 TemperatureHumidityPressure
High97 °F (Jul 10, 3:58 pm)90% (Jul 4, 5:58 pm)30.16 "Hg (Jul 4, 5:58 pm)
Low52 °F (Jul 1, 3:58 am)7% (Jul 2, 4:58 pm)29.41 "Hg (Jun 29, 1:58 am)
Average76 °F36%29.81 "Hg
* Reported Jun 27 4:58 pm — Jul 12 4:58 pm, Denver. Weather by CustomWeather, © 2020

Note: Actual official high and low records may vary slightly from our data, if they occured in-between our weather recording intervals... More about our weather records

Denver Weather History for the Previous 24 Hours

Scroll right to see more
 ConditionsComfort  
Time TempWeatherWind HumidityBarometerVisibility
4:58 pm
Sun, Jul 12
87 °FBroken clouds.13 mph19%29.83 "Hg10 mi
3:58 pm83 °FBroken clouds.15 mph24%29.88 "Hg10 mi
2:58 pm88 °FBroken clouds.18 mph15%29.85 "Hg10 mi
1:58 pm94 °FBroken clouds.9 mph11%29.80 "Hg10 mi
12:58 pm95 °FScattered clouds.10 mph11%29.82 "Hg10 mi
11:58 am92 °FScattered clouds.13 mph13%29.85 "Hg10 mi
10:58 am89 °FPassing clouds.8 mph18%29.88 "Hg10 mi
9:58 am85 °FPassing clouds.8 mph39%29.89 "Hg10 mi
8:58 am80 °FPassing clouds.18 mph51%29.89 "Hg10 mi
7:58 am75 °FPassing clouds.17 mph60%29.90 "Hg10 mi
6:58 am71 °FPassing clouds.20 mph66%29.89 "Hg10 mi
5:58 am70 °FSunny.20 mph69%29.90 "Hg10 mi
4:58 am71 °FClear.22 mph65%29.88 "Hg10 mi
3:58 am74 °FClear.22 mph55%29.87 "Hg10 mi
2:58 am74 °FClear.18 mph51%29.89 "Hg10 mi
1:58 am75 °FClear.18 mph46%29.91 "Hg10 mi
12:58 am73 °FClear.13 mph45%29.95 "Hg10 mi
11:58 pm
Sat, Jul 11
71 °FClear.7 mph44%29.99 "Hg10 mi
10:58 pm71 °FPassing clouds.12 mph46%30.00 "Hg10 mi
9:58 pm74 °FPartly cloudy.9 mph42%30.02 "Hg10 mi
8:58 pm78 °FPassing clouds.9 mph31%29.99 "Hg10 mi
7:58 pm83 °FScattered clouds.8 mph23%29.97 "Hg10 mi
6:58 pm86 °FScattered clouds.10 mph21%29.97 "Hg10 mi
Weather by CustomWeather, © 2020

See weather overview